When you browse on this site, cookies collect data to enhance your experience and personalize the content and advertising you see.
Visit our Privacy Policy to learn more. By continuing to use the site, you agree to this use of cookies and data.
  • In Österreich
  • Länderverzeichnis
  • Für 7 Tage
  • Wassertemperatur
  • Wetterkarte
  • News
  • Widgets
  • user-avatar
    Anmelden

    Stündliche Wetter Gedshon

    Heute, 23 August, Freitag

    Zeit Temperatur Niederschläge Wind Luftdruck Luftfeuchtigkeit
    00:00 +22°C° 0 mm 1 m/S 741 mmHg 93%
    01:00 +22°C° 0 mm 1 m/S 741 mmHg 94%
    02:00 +22°C° 0 mm 1 m/S 741 mmHg 92%
    03:00 +22°C° 0 mm 1 m/S 741 mmHg 92%
    04:00 +21°C° 0 mm 1 m/S 741 mmHg 93%
    05:00 +21°C° 0 mm 1 m/S 741 mmHg 94%
    06:00 +22°C° 0 mm 1 m/S 741 mmHg 92%
    07:00 +23°C° 0 mm 1 m/S 742 mmHg 89%
    08:00 +25°C° 0 mm 1 m/S 742 mmHg 85%
    09:00 +26°C° 0 mm 1 m/S 742 mmHg 76%
    10:00 +28°C° 0 mm 2 m/S 742 mmHg 66%
    11:00 +29°C° 0 mm 2 m/S 742 mmHg 56%
    12:00 +29°C° 0 mm 3 m/S 742 mmHg 55%
    13:00 +30°C° 0 mm 3 m/S 742 mmHg 54%
    14:00 +30°C° 0 mm 4 m/S 741 mmHg 53%
    15:00 +29°C° 0 mm 4 m/S 741 mmHg 60%
    16:00 +28°C° 0 mm 3 m/S 741 mmHg 66%
    17:00 +27°C° 0 mm 3 m/S 741 mmHg 73%
    18:00 +25°C° 0 mm 2 m/S 742 mmHg 78%
    19:00 +23°C° 0 mm 2 m/S 742 mmHg 82%
    20:00 +21°C° 0 mm 1 m/S 742 mmHg 86%
    21:00 +21°C° 0 mm 1 m/S 742 mmHg 87%
    22:00 +21°C° 0 mm 1 m/S 742 mmHg 87%
    23:00 +20°C° 0 mm 1 m/S 743 mmHg 88%

    Morgen, 24 August, Samstag

    Zeit Temperatur Niederschläge Wind Luftdruck Luftfeuchtigkeit
    00:00 +20°C° 0 mm 1 m/S 743 mmHg 89%
    01:00 +20°C° 0 mm 1 m/S 742 mmHg 90%
    02:00 +19°C° 0 mm 1 m/S 742 mmHg 91%
    03:00 +20°C° 0 mm 1 m/S 742 mmHg 91%
    04:00 +20°C° 0 mm 1 m/S 743 mmHg 91%
    05:00 +20°C° 0 mm 1 m/S 743 mmHg 91%
    06:00 +21°C° 0 mm 1 m/S 743 mmHg 87%
    07:00 +23°C° 0 mm 1 m/S 743 mmHg 83%
    08:00 +24°C° 0 mm 2 m/S 743 mmHg 79%
    09:00 +25°C° 0 mm 2 m/S 743 mmHg 75%
    10:00 +26°C° 0 mm 2 m/S 743 mmHg 71%
    11:00 +27°C° 0 mm 2 m/S 743 mmHg 67%
    12:00 +27°C° 0.1 mm 3 m/S 743 mmHg 66%
    13:00 +28°C° 0.1 mm 3 m/S 743 mmHg 66%
    14:00 +28°C° 0.1 mm 3 m/S 742 mmHg 66%
    15:00 +27°C° 0.1 mm 3 m/S 742 mmHg 70%
    16:00 +26°C° 0.1 mm 2 m/S 743 mmHg 75%
    17:00 +25°C° 0.1 mm 2 m/S 743 mmHg 80%
    18:00 +24°C° 0 mm 2 m/S 743 mmHg 84%
    19:00 +23°C° 0 mm 1 m/S 743 mmHg 88%
    20:00 +21°C° 0 mm 1 m/S 743 mmHg 92%
    21:00 +21°C° 0 mm 1 m/S 744 mmHg 92%
    22:00 +19°C° 0 mm 0 m/S 744 mmHg 93%
    23:00 +18°C° 0 mm 0 m/S 744 mmHg 94%

    übermorgen, 25 August, Sonntag

    Zeit Temperatur Niederschläge Wind Luftdruck Luftfeuchtigkeit
    00:00 +18°C° 0 mm 0 m/S 744 mmHg 94%
    01:00 +18°C° 0 mm 0 m/S 744 mmHg 95%
    02:00 +18°C° 0 mm 0 m/S 743 mmHg 95%
    03:00 +18°C° 0 mm 0 m/S 744 mmHg 95%
    04:00 +17°C° 0 mm 0 m/S 744 mmHg 95%
    05:00 +17°C° 0 mm 0 m/S 744 mmHg 96%
    06:00 +19°C° 0 mm 0 m/S 744 mmHg 90%
    07:00 +21°C° 0 mm 0 m/S 744 mmHg 84%
    08:00 +23°C° 0 mm 0 m/S 745 mmHg 78%
    09:00 +25°C° 0 mm 0 m/S 745 mmHg 70%
    10:00 +28°C° 0 mm 1 m/S 745 mmHg 63%
    11:00 +30°C° 0 mm 1 m/S 745 mmHg 55%
    12:00 +30°C° 0 mm 1 m/S 744 mmHg 54%
    13:00 +30°C° 0 mm 2 m/S 744 mmHg 54%
    14:00 +30°C° 0 mm 2 m/S 744 mmHg 53%
    15:00 +29°C° 0 mm 2 m/S 744 mmHg 61%
    16:00 +28°C° 0 mm 2 m/S 744 mmHg 68%
    17:00 +26°C° 0 mm 2 m/S 744 mmHg 76%
    18:00 +25°C° 0 mm 2 m/S 744 mmHg 82%
    19:00 +23°C° 0 mm 1 m/S 745 mmHg 87%
    20:00 +19°C° 0 mm 0 m/S 745 mmHg 93%
    21:00 +19°C° 0 mm 0 m/S 745 mmHg 93%
    22:00 +19°C° 0 mm 0 m/S 745 mmHg 93%
    23:00 +18°C° 0 mm 0 m/S 745 mmHg 94%

    26 August, Montag

    Zeit Temperatur Niederschläge Wind Luftdruck Luftfeuchtigkeit
    00:00 +18°C° 0 mm 0 m/S 745 mmHg 94%
    01:00 +18°C° 0 mm 0 m/S 745 mmHg 94%
    02:00 +18°C° 0 mm 0 m/S 745 mmHg 95%
    03:00 +18°C° 0 mm 0 m/S 745 mmHg 95%
    04:00 +17°C° 0 mm 0 m/S 745 mmHg 95%
    05:00 +17°C° 0 mm 0 m/S 745 mmHg 95%
    06:00 +19°C° 0 mm 0 m/S 745 mmHg 89%
    07:00 +23°C° 0 mm 1 m/S 745 mmHg 83%
    08:00 +25°C° 0 mm 1 m/S 745 mmHg 76%
    09:00 +27°C° 0 mm 1 m/S 745 mmHg 68%
    10:00 +29°C° 0 mm 1 m/S 745 mmHg 60%
    11:00 +31°C° 0 mm 1 m/S 745 mmHg 51%
    12:00 +31°C° 0 mm 1 m/S 744 mmHg 50%
    13:00 +32°C° 0 mm 1 m/S 744 mmHg 48%
    14:00 +32°C° 0 mm 2 m/S 743 mmHg 47%
    15:00 +31°C° 0 mm 1 m/S 743 mmHg 54%
    16:00 +30°C° 0 mm 1 m/S 743 mmHg 61%
    17:00 +29°C° 0 mm 1 m/S 743 mmHg 68%
    18:00 +28°C° 0 mm 1 m/S 743 mmHg 70%
    19:00 +26°C° 0 mm 1 m/S 743 mmHg 73%
    20:00 +25°C° 0 mm 1 m/S 744 mmHg 76%
    21:00 +24°C° 0 mm 1 m/S 744 mmHg 78%
    22:00 +24°C° 0 mm 1 m/S 744 mmHg 80%
    23:00 +23°C° 0 mm 1 m/S 743 mmHg 82%

    27 August, Dienstag

    Zeit Temperatur Niederschläge Wind Luftdruck Luftfeuchtigkeit
    00:00 +23°C° 0.2 mm 1 m/S 743 mmHg 84%
    01:00 +23°C° 0.2 mm 1 m/S 742 mmHg 85%
    02:00 +23°C° 0.2 mm 1 m/S 742 mmHg 86%
    03:00 +22°C° 3.5 mm 1 m/S 741 mmHg 90%
    04:00 +22°C° 3.5 mm 1 m/S 741 mmHg 93%
    05:00 +20°C° 3.5 mm 2 m/S 740 mmHg 97%
    06:00 +20°C° 11.3 mm 2 m/S 740 mmHg 97%
    07:00 +21°C° 11.3 mm 2 m/S 740 mmHg 97%
    08:00 +21°C° 11.3 mm 2 m/S 740 mmHg 97%
    09:00 +21°C° 3.2 mm 2 m/S 740 mmHg 96%
    10:00 +22°C° 3.2 mm 3 m/S 740 mmHg 95%
    11:00 +22°C° 3.2 mm 3 m/S 739 mmHg 94%
    12:00 +22°C° 0.3 mm 3 m/S 739 mmHg 94%
    13:00 +23°C° 0.3 mm 2 m/S 739 mmHg 94%
    14:00 +23°C° 0.3 mm 2 m/S 739 mmHg 94%
    15:00 +23°C° 1 mm 2 m/S 739 mmHg 95%
    16:00 +23°C° 1 mm 1 m/S 739 mmHg 96%
    17:00 +23°C° 1 mm 1 m/S 739 mmHg 97%
    18:00 +23°C° 0.7 mm 1 m/S 739 mmHg 97%
    19:00 +20°C° 0.7 mm 0 m/S 739 mmHg 97%
    20:00 +20°C° 0.7 mm 0 m/S 740 mmHg 97%
    21:00 +20°C° 0.1 mm 0 m/S 739 mmHg 97%
    22:00 +20°C° 0.1 mm 0 m/S 739 mmHg 97%
    23:00 +20°C° 0.1 mm 0 m/S 739 mmHg 97%

    28 August, Mittwoch

    Zeit Temperatur Niederschläge Wind Luftdruck Luftfeuchtigkeit
    00:00 +20°C° 0.6 mm 0 m/S 739 mmHg 97%
    01:00 +20°C° 0.6 mm 0 m/S 738 mmHg 97%
    02:00 +20°C° 0.6 mm 0 m/S 738 mmHg 98%
    03:00 +20°C° 0.1 mm 0 m/S 738 mmHg 98%
    04:00 +20°C° 0.1 mm 0 m/S 738 mmHg 98%
    05:00 +20°C° 0.1 mm 0 m/S 738 mmHg 98%
    06:00 +21°C° 0 mm 0 m/S 738 mmHg 95%
    07:00 +22°C° 0 mm 0 m/S 738 mmHg 92%
    08:00 +23°C° 0 mm 0 m/S 738 mmHg 90%
    09:00 +26°C° 0 mm 1 m/S 738 mmHg 82%
    10:00 +28°C° 0 mm 1 m/S 738 mmHg 75%
    11:00 +29°C° 0 mm 1 m/S 739 mmHg 68%
    12:00 +29°C° 0.7 mm 2 m/S 738 mmHg 73%
    13:00 +28°C° 0.7 mm 3 m/S 738 mmHg 78%
    14:00 +28°C° 0.7 mm 4 m/S 738 mmHg 83%
    15:00 +27°C° 0.4 mm 3 m/S 738 mmHg 84%
    16:00 +27°C° 0.4 mm 3 m/S 738 mmHg 85%
    17:00 +26°C° 0.4 mm 2 m/S 738 mmHg 87%
    18:00 +25°C° 0.2 mm 2 m/S 739 mmHg 90%
    19:00 +24°C° 0.2 mm 1 m/S 739 mmHg 93%
    20:00 +23°C° 0.2 mm 1 m/S 740 mmHg 95%
    21:00 +22°C° 0 mm 1 m/S 740 mmHg 96%
    22:00 +20°C° 0 mm 0 m/S 740 mmHg 96%
    23:00 +20°C° 0 mm 0 m/S 739 mmHg 96%
    Mehr zeigen